Wind_Speed
5 4 4 4 5 5 5 6 6 6 6 5 5 5 5 5 5 5 4 4 4 4 3 3 3 4 5 4 4 5 5 6 6 6 6 6 7 7 8 8 8 9 9
4 3 3 3 3 4 4 5 5 6 6 5 5 5 5 5 5 5 4 5 4 4 4 4 4 5 6 6 5 6 6 6 7 7 7 7 8 8 8 9 9 9 10
3 2 2 2 2 3 4 4 4 5 5 5 4 4 5 5 6 6 6 5 4 4 4 5 5 6 6 7 7 6 7 8 8 8 8 7 7 9 9 10 10 10 11
3 2 2 1 1 1 2 3 4 4 5 5 4 4 5 5 6 6 6 5 5 5 6 6 6 7 7 7 7 7 8 8 8 9 9 9 10 10 10 11 12 12 12
4 3 3 2 2 2 2 2 3 4 4 4 4 4 5 6 6 7 7 6 6 6 6 7 7 8 8 8 8 8 9 9 9 10 10 11 11 12 12 12 13 13 14
4 4 4 3 2 3 4 3 4 4 4 5 5 5 5 6 7 7 7 7 7 6 6 7 7 8 9 9 8 9 9 11 11 11 12 12 13 13 14 14 14 14 15
5 5 4 4 4 4 4 5 5 5 5 6 7 6 7 7 8 8 8 8 7 7 7 8 8 9 10 10 11 10 11 12 12 13 13 14 15 16 15 15 16 16 16
5 5 5 5 5 6 6 7 6 6 6 7 8 8 7 7 8 8 9 8 8 8 8 9 10 10 11 11 12 12 12 14 13 14 15 15 16 16 16 17 17 17 16
6 6 6 7 7 8 8 7 7 7 7 8 9 7 7 8 8 8 9 9 9 9 10 10 11 11 12 12 13 13 13 14 14 14 16 16 16 17 17 17 17 17 16
8 7 7 7 8 9 9 8 8 9 8 8 9 9 9 9 9 9 10 10 10 10 11 12 12 13 13 14 14 15 13 14 14 15 16 16 18 18 18 17 17 17 17
8 8 8 9 10 11 11 11 10 10 10 10 10 9 9 10 10 10 11 12 12 12 12 13 13 13 14 15 15 15 14 14 15 16 16 17 18 18 18 17 17 17 17
10 10 10 11 12 13 14 13 13 13 13 12 12 11 11 11 11 12 12 12 13 14 13 14 14 14 15 15 15 15 16 16 17 17 17 17 18 17 17 17 17 18 17
12 12 13 13 14 15 15 15 15 14 14 14 13 13 13 13 13 13 13 13 14 14 14 14 15 15 16 16 16 16 17 18 18 18 17 18 18 17 17 18 18 18 18
14 14 15 15 16 16 15 16 16 14 15 15 16 15 14 14 15 14 15 15 15 16 16 16 17 17 18 18 18 18 19 20 20 19 18 18 18 18 18 18 18 18 19
16 16 16 16 16 16 16 16 16 16 16 16 17 17 17 17 16 16 17 17 17 18 18 19 20 20 20 20 20 20 21 21 21 21 19 19 19 19 19 19 19 19 19
17 17 17 17 17 17 17 18 18 18 18 18 18 19 19 19 18 19 20 20 20 20 20 20 21 22 22 22 22 22 22 23 22 22 21 21 21 21 21 21 20 20 20
18 17 17 17 18 19 19 19 20 21 21 21 21 21 21 22 21 21 21 21 22 23 23 23 23 23 24 24 24 24 24 24 24 23 23 23 23 23 22 22 21 21 22
20 19 18 19 20 21 22 21 21 22 23 23 23 23 24 24 23 24 24 24 24 25 25 25 24 24 24 25 25 26 26 26 24 24 25 25 25 24 24 23 23 24 23
22 21 20 21 23 23 24 24 24 25 25 24 24 25 25 26 25 25 25 25 25 25 26 26 27 27 27 27 27 27 26 26 26 26 26 26 26 25 26 26 26 25 25
24 24 23 23 24 25 25 26 27 26 27 27 27 28 27 27 26 26 27 27 27 27 27 28 28 29 28 28 28 27 27 27 27 27 27 27 26 27 27 27 26 25 25
26 25 25 25 25 26 27 27 28 28 28 29 29 29 29 28 27 27 28 28 29 29 29 30 30 30 29 29 29 28 28 28 28 28 28 28 28 28 28 28 27 26 26
27 27 27 28 28 28 29 29 29 30 30 30 29 29 30 29 28 29 29 30 30 31 31 31 31 31 30 30 30 30 30 29 29 29 29 29 29 29 29 29 27 26 27
29 29 29 30 30 29 30 30 31 31 31 31 30 31 31 31 31 31 30 30 31 31 31 31 32 31 31 31 31 31 30 31 30 30 29 29 29 28 29 29 29 28 28
30 30 29 30 29 29 31 32 32 31 32 32 31 31 31 31 32 31 31 31 30 31 31 32 32 32 31 32 32 32 31 30 30 31 30 30 30 30 30 30 30 30 30
30 31 31 30 30 30 30 31 31 31 32 31 31 31 31 31 31 31 31 32 32 32 32 32 32 32 31 32 32 31 31 30 31 31 31 31 31 31 31 31 31 32 31
31 31 32 32 32 31 31 31 31 32 31 31 31 31 31 31 31 30 31 32 32 32 32 32 33 32 32 33 32 31 31 31 32 32 32 32 33 33 33 32 32 33 32
Wind_Direction
23 33 44 51 51 52 57 58 54 52 47 40 34 36 38 36 33 31 21 7 356 349 342 334 321 308 306 305 297 289 290 289 288 293 298 296 293 293 291 292 293 288 285
10 17 34 42 44 47 51 50 46 42 38 31 28 32 29 25 19 19 17 7 357 344 333 324 316 310 307 303 295 295 292 291 292 294 293 292 297 295 291 292 293 289 287
357 352 6 26 37 42 42 36 29 27 20 15 15 18 15 10 8 7 3 357 352 345 332 322 318 313 309 304 299 297 297 294 291 291 292 288 290 294 295 291 291 291 289
335 324 323 337 2 21 25 12 5 5 1 358 358 359 358 357 358 352 347 342 341 337 330 323 319 316 316 310 302 301 303 300 300 300 297 294 290 290 291 290 290 288 287
327 325 317 332 338 325 341 357 358 355 351 348 343 338 339 340 341 340 338 336 334 334 325 320 316 316 314 315 311 304 302 301 301 302 302 301 298 293 289 288 288 288 287
314 320 317 316 336 338 341 343 343 344 341 337 332 327 325 326 328 329 328 327 325 324 319 317 317 314 319 317 312 309 308 305 304 304 302 299 298 295 292 291 290 287 287
298 310 315 316 322 325 328 333 327 325 327 327 325 320 317 317 318 319 321 319 319 320 319 320 318 316 318 318 315 309 304 303 304 304 304 301 299 294 291 289 288 286 285
290 300 303 301 305 308 313 323 327 316 317 319 318 314 309 309 311 313 316 317 315 314 314 314 312 313 314 313 313 304 300 301 303 303 305 302 299 298 295 291 288 287 286
293 296 301 301 299 300 307 310 316 321 319 319 317 310 306 307 309 310 313 314 311 309 309 309 309 310 312 313 313 310 305 305 304 302 304 302 298 298 297 294 291 289 287
290 293 299 303 299 295 300 304 303 304 308 310 313 311 310 308 308 306 307 308 307 306 307 307 307 309 311 313 313 315 311 310 304 304 305 303 303 300 297 294 292 291 289
285 287 291 296 297 295 296 298 296 295 296 297 298 299 299 300 303 304 305 306 306 304 304 306 306 307 309 310 313 314 311 310 310 309 307 306 304 299 299 299 296 293 290
288 286 285 290 294 295 297 297 297 294 291 293 292 291 291 294 296 297 300 302 304 305 306 306 304 304 306 308 310 311 310 308 309 310 311 309 307 304 301 300 298 296 293
284 285 285 287 290 293 295 297 299 295 291 291 291 290 288 290 292 293 294 297 301 304 304 305 304 304 304 305 306 307 307 306 307 309 308 308 307 303 301 299 297 294 292
280 284 286 287 288 290 292 294 295 291 289 289 290 289 284 287 288 289 291 293 296 300 302 302 302 302 301 301 301 303 304 305 306 305 306 306 306 304 300 299 298 294 292
280 284 287 285 284 285 288 290 289 288 288 290 290 288 288 287 287 288 291 293 295 296 298 300 300 297 295 296 297 298 300 301 303 304 303 302 300 302 302 300 299 297 295
278 282 286 283 281 284 286 287 287 286 287 287 287 288 289 289 289 291 292 293 296 298 300 300 298 297 295 293 294 295 297 299 299 299 300 300 300 299 300 300 298 297 296
274 278 281 281 280 283 286 288 287 287 288 287 285 285 287 288 289 290 291 291 293 296 299 297 297 297 297 293 294 295 295 296 297 296 296 297 296 296 296 296 299 300 296
277 275 276 280 281 283 285 286 287 287 288 287 286 287 286 286 286 286 287 288 290 293 296 296 297 296 296 293 292 292 294 293 294 294 294 294 293 292 293 293 295 297 297
274 276 276 279 281 283 285 286 286 287 287 286 286 287 286 285 285 286 289 289 290 291 293 295 295 294 293 292 291 291 291 290 290 290 292 293 293 291 291 291 292 293 292
272 274 276 279 281 281 283 285 285 286 286 284 284 287 290 289 287 286 287 288 289 291 292 293 294 294 293 291 291 291 290 292 291 290 291 291 291 290 289 290 291 290 290
270 273 275 277 280 281 284 286 286 286 287 287 288 289 289 289 287 286 285 285 286 287 290 291 292 293 293 293 292 291 291 292 291 290 291 291 291 289 288 289 289 287 288
268 271 274 276 277 280 282 285 287 287 286 288 289 288 288 287 285 284 284 284 285 286 287 289 289 291 291 291 291 290 289 291 291 290 291 292 291 290 289 290 290 289 290
268 270 274 277 278 279 281 284 287 288 287 288 288 288 287 287 286 285 285 286 286 286 287 288 289 289 290 290 290 290 290 290 289 289 290 290 290 291 291 292 290 290 291
268 270 274 278 279 282 283 283 285 287 288 288 288 287 287 287 286 286 285 285 287 288 288 289 289 289 289 288 289 290 291 289 287 288 288 288 288 289 291 293 291 290 290
268 271 273 277 278 280 283 285 287 288 288 287 288 288 287 287 287 287 286 286 286 288 287 288 289 288 288 290 290 290 289 288 287 287 287 287 288 289 290 291 291 291 290
268 270 274 277 279 280 282 283 285 287 288 286 286 287 287 286 286 287 287 287 287 287 287 287 287 287 287 288 287 287 287 286 285 286 286 286 287 288 289 290 290 289 289
Height
5906 5905 5905 5904 5903 5903 5902 5901 5900 5900 5899 5898 5898 5897 5896 5896 5895 5894 5893 5892 5891 5890 5890 5889 5889 5888 5888 5888 5887 5887 5886 5886 5885 5885 5884 5883 5883 5882 5881 5881 5880 5879 5879
5906 5905 5905 5904 5904 5903 5903 5902 5901 5900 5900 5899 5898 5898 5897 5896 5896 5895 5894 5892 5891 5890 5890 5889 5888 5888 5887 5886 5886 5885 5885 5884 5884 5883 5883 5882 5882 5880 5879 5878 5878 5877 5877
5907 5905 5905 5904 5904 5904 5903 5902 5902 5901 5900 5899 5899 5898 5897 5897 5896 5895 5894 5892 5891 5890 5889 5888 5888 5887 5886 5885 5885 5884 5883 5883 5882 5881 5881 5880 5880 5879 5878 5877 5876 5875 5874
5907 5905 5904 5904 5904 5903 5903 5902 5902 5901 5900 5900 5899 5898 5897 5896 5895 5894 5893 5892 5891 5890 5889 5888 5887 5886 5885 5884 5883 5882 5882 5881 5880 5879 5879 5878 5877 5876 5875 5874 5873 5872 5871
5906 5905 5904 5903 5903 5903 5903 5902 5901 5901 5900 5899 5898 5898 5897 5895 5894 5893 5892 5891 5890 5889 5888 5887 5886 5885 5883 5882 5881 5880 5880 5879 5878 5877 5876 5875 5874 5872 5872 5871 5870 5869 5868
5905 5904 5903 5903 5903 5903 5902 5901 5901 5900 5899 5898 5897 5896 5896 5894 5893 5892 5891 5890 5889 5888 5887 5885 5884 5883 5881 5880 5879 5878 5877 5876 5875 5874 5873 5872 5871 5869 5868 5868 5867 5865 5864
5905 5904 5903 5903 5902 5902 5901 5901 5900 5899 5898 5897 5896 5895 5894 5893 5892 5891 5890 5889 5887 5886 5885 5884 5883 5882 5880 5878 5877 5876 5875 5873 5872 5870 5869 5868 5867 5866 5865 5864 5863 5861 5860
5903 5903 5902 5902 5901 5901 5900 5899 5898 5898 5897 5896 5895 5894 5892 5891 5890 5889 5888 5887 5886 5884 5883 5882 5881 5879 5878 5876 5875 5873 5872 5870 5868 5867 5865 5863 5862 5861 5860 5859 5858 5857 5856
5902 5901 5901 5900 5900 5899 5899 5898 5897 5896 5895 5894 5893 5892 5891 5890 5889 5888 5886 5885 5884 5882 5881 5880 5878 5876 5875 5873 5872 5870 5868 5866 5865 5863 5861 5859 5858 5857 5855 5854 5853 5852 5851
5900 5900 5899 5898 5898 5897 5896 5895 5894 5893 5892 5891 5891 5890 5888 5887 5886 5886 5884 5883 5881 5879 5878 5877 5875 5873 5872 5870 5868 5867 5865 5863 5861 5859 5857 5855 5853 5852 5850 5848 5847 5847 5846
5898 5898 5897 5897 5896 5895 5894 5892 5891 5890 5889 5888 5887 5886 5886 5885 5884 5883 5881 5880 5879 5877 5875 5874 5872 5870 5869 5867 5865 5863 5862 5860 5858 5855 5853 5851 5849 5847 5845 5844 5843 5842 5841
5896 5896 5895 5894 5893 5892 5890 5889 5888 5887 5886 5885 5884 5883 5882 5882 5881 5879 5878 5877 5876 5874 5872 5870 5869 5867 5865 5864 5862 5860 5858 5856 5854 5851 5850 5847 5845 5843 5841 5840 5838 5837 5836
5893 5893 5892 5891 5890 5888 5887 5885 5884 5883 5882 5881 5880 5880 5879 5878 5877 5876 5874 5873 5872 5870 5868 5867 5865 5863 5862 5860 5858 5856 5854 5852 5850 5847 5845 5843 5841 5839 5837 5836 5834 5833 5831
5889 5889 5888 5887 5886 5885 5883 5882 5880 5879 5878 5878 5877 5876 5875 5874 5873 5871 5870 5869 5867 5866 5864 5862 5861 5859 5857 5856 5854 5852 5850 5848 5845 5843 5841 5839 5837 5835 5833 5831 5829 5827 5826
5885 5884 5884 5883 5882 5881 5880 5878 5877 5876 5875 5874 5873 5872 5871 5870 5869 5867 5865 5864 5863 5861 5859 5858 5856 5854 5852 5851 5849 5847 5845 5843 5841 5838 5836 5834 5832 5830 5828 5826 5824 5822 5821
5880 5879 5879 5878 5877 5876 5875 5874 5873 5872 5871 5870 5868 5867 5866 5865 5864 5863 5861 5860 5858 5856 5854 5853 5851 5849 5847 5845 5844 5842 5840 5837 5835 5833 5831 5829 5827 5825 5823 5821 5819 5817 5815
5874 5873 5873 5873 5872 5871 5870 5869 5868 5867 5866 5865 5864 5862 5861 5860 5858 5857 5856 5854 5853 5851 5850 5848 5846 5844 5841 5839 5838 5835 5833 5831 5830 5828 5826 5824 5822 5820 5818 5815 5814 5812 5809
5868 5868 5867 5867 5867 5866 5865 5864 5863 5862 5860 5859 5857 5856 5855 5853 5852 5851 5849 5848 5847 5845 5843 5842 5839 5837 5835 5833 5831 5829 5826 5825 5823 5821 5819 5817 5815 5813 5811 5809 5808 5806 5804
5862 5862 5862 5861 5861 5860 5859 5858 5857 5856 5854 5852 5851 5849 5848 5846 5845 5843 5842 5841 5839 5838 5836 5835 5832 5830 5828 5826 5824 5821 5819 5817 5816 5814 5812 5810 5808 5807 5805 5803 5801 5799 5797
5856 5855 5855 5855 5854 5854 5853 5852 5850 5849 5847 5845 5843 5842 5840 5838 5837 5836 5835 5833 5832 5831 5829 5827 5825 5822 5820 5818 5816 5814 5812 5810 5809 5807 5805 5803 5801 5799 5797 5796 5794 5792 5790
5849 5849 5849 5848 5847 5846 5845 5844 5843 5841 5839 5837 5835 5834 5832 5830 5829 5828 5826 5825 5824 5823 5821 5820 5817 5815 5813 5810 5808 5806 5804 5803 5801 5800 5798 5796 5793 5791 5790 5788 5786 5784 5782
5842 5842 5841 5841 5840 5839 5838 5837 5835 5834 5831 5829 5827 5826 5824 5822 5820 5819 5818 5817 5816 5815 5813 5811 5809 5807 5805 5803 5800 5798 5796 5795 5794 5792 5790 5788 5786 5784 5782 5781 5779 5777 5775
5833 5833 5833 5833 5832 5830 5829 5828 5827 5825 5823 5821 5819 5818 5816 5814 5812 5811 5810 5808 5807 5806 5804 5802 5801 5799 5797 5795 5792 5789 5788 5786 5785 5784 5782 5780 5778 5776 5774 5773 5771 5769 5767
5824 5824 5824 5824 5823 5822 5821 5819 5818 5816 5815 5813 5811 5809 5807 5805 5804 5802 5801 5800 5798 5797 5795 5794 5792 5790 5788 5786 5784 5781 5779 5777 5776 5775 5773 5772 5770 5768 5766 5765 5763 5761 5759
5815 5815 5815 5814 5814 5813 5812 5811 5809 5807 5806 5804 5802 5800 5799 5797 5795 5794 5792 5791 5790 5788 5787 5785 5783 5781 5779 5777 5774 5772 5771 5769 5768 5766 5764 5763 5761 5760 5758 5756 5754 5752 5750
5806 5806 5806 5806 5805 5805 5804 5802 5800 5799 5797 5795 5793 5792 5790 5788 5786 5785 5784 5782 5781 5779 5777 5775 5773 5771 5769 5767 5765 5763 5762 5760 5759 5757 5756 5755 5753 5751 5749 5747 5745 5743 5741